Year,Month,Day,Hour,Minute,Value (Times are PST for temperature in C)
2016,03,18,00,00,2.90
2016,03,18,00,01,2.90
2016,03,18,00,02,2.90
2016,03,18,00,03,2.90
2016,03,18,00,04,2.80
2016,03,18,00,05,2.90
2016,03,18,00,06,2.80
2016,03,18,00,07,2.80
2016,03,18,00,08,2.80
2016,03,18,00,09,2.80
2016,03,18,00,10,2.80
2016,03,18,00,11,2.80
2016,03,18,00,12,2.80
2016,03,18,00,13,2.80
2016,03,18,00,14,2.80
2016,03,18,00,15,2.80
2016,03,18,00,16,2.80
2016,03,18,00,17,2.80
2016,03,18,00,18,2.80
2016,03,18,00,19,2.80
2016,03,18,00,20,2.80
2016,03,18,00,21,2.80
2016,03,18,00,22,2.80
2016,03,18,00,23,2.70
2016,03,18,00,24,2.70
2016,03,18,00,25,2.70
2016,03,18,00,26,2.70
2016,03,18,00,27,2.70
2016,03,18,00,28,2.70
2016,03,18,00,29,2.60
2016,03,18,00,30,2.60
2016,03,18,00,31,2.60
2016,03,18,00,32,2.50
2016,03,18,00,33,2.50
2016,03,18,00,34,2.50
2016,03,18,00,35,2.40
2016,03,18,00,36,2.40
2016,03,18,00,37,2.40
2016,03,18,00,38,2.40
2016,03,18,00,39,2.30
2016,03,18,00,40,2.30
2016,03,18,00,41,2.30
2016,03,18,00,42,2.30
2016,03,18,00,43,2.30
2016,03,18,00,44,2.30
2016,03,18,00,45,2.30
2016,03,18,00,46,2.30
2016,03,18,00,47,2.30
2016,03,18,00,48,2.30
2016,03,18,00,49,2.30
2016,03,18,00,50,2.20
2016,03,18,00,51,2.20
2016,03,18,00,52,2.20
2016,03,18,00,53,2.20
2016,03,18,00,54,2.20
2016,03,18,00,55,2.20
2016,03,18,00,56,2.20
2016,03,18,00,57,2.10
2016,03,18,00,58,2.10
2016,03,18,00,59,2.10
2016,03,18,01,00,2.10
2016,03,18,01,01,2.10
2016,03,18,01,02,2.00
2016,03,18,01,03,2.00
2016,03,18,01,04,2.00
2016,03,18,01,05,1.90
2016,03,18,01,06,1.90
2016,03,18,01,07,1.90
2016,03,18,01,08,1.90
2016,03,18,01,09,1.90
2016,03,18,01,10,1.90
2016,03,18,01,11,1.80
2016,03,18,01,12,1.80
2016,03,18,01,13,1.80
2016,03,18,01,14,1.80
2016,03,18,01,15,1.80
2016,03,18,01,16,1.80
2016,03,18,01,17,1.80
2016,03,18,01,18,1.70
2016,03,18,01,19,1.70
2016,03,18,01,20,1.70
2016,03,18,01,21,1.70
2016,03,18,01,22,1.70
2016,03,18,01,23,1.70
2016,03,18,01,24,1.70
2016,03,18,01,25,1.70
2016,03,18,01,26,1.70
2016,03,18,01,27,1.70
2016,03,18,01,28,1.70
2016,03,18,01,29,1.70
2016,03,18,01,30,1.60
2016,03,18,01,31,1.60
2016,03,18,01,32,1.60
2016,03,18,01,33,1.70
2016,03,18,01,34,1.60
2016,03,18,01,35,1.60
2016,03,18,01,36,1.60
2016,03,18,01,37,1.60
2016,03,18,01,38,1.60
2016,03,18,01,39,1.60
2016,03,18,01,40,1.60
2016,03,18,01,41,1.60
2016,03,18,01,42,1.60
2016,03,18,01,43,1.60
2016,03,18,01,44,1.60
2016,03,18,01,45,1.60
2016,03,18,01,46,1.60
2016,03,18,01,47,1.60
2016,03,18,01,48,1.60
2016,03,18,01,49,1.60
2016,03,18,01,50,1.60
2016,03,18,01,51,1.60
2016,03,18,01,52,1.60
2016,03,18,01,53,1.60
2016,03,18,01,54,1.60
2016,03,18,01,55,1.60
2016,03,18,01,56,1.60
2016,03,18,01,57,1.50
2016,03,18,01,58,1.50
2016,03,18,01,59,1.50
2016,03,18,02,00,1.50
2016,03,18,02,01,1.50
2016,03,18,02,02,1.40
2016,03,18,02,03,1.40
2016,03,18,02,04,1.40
2016,03,18,02,05,1.40
2016,03,18,02,06,1.40
2016,03,18,02,07,1.40
2016,03,18,02,08,1.40
2016,03,18,02,09,1.40
2016,03,18,02,10,1.40
2016,03,18,02,11,1.40
2016,03,18,02,12,1.40
2016,03,18,02,13,1.40
2016,03,18,02,14,1.40
2016,03,18,02,15,1.40
2016,03,18,02,16,1.40
2016,03,18,02,17,1.40
2016,03,18,02,18,1.40
2016,03,18,02,19,1.40
2016,03,18,02,20,1.40
2016,03,18,02,21,1.40
2016,03,18,02,22,1.40
2016,03,18,02,23,1.40
2016,03,18,02,24,1.40
2016,03,18,02,25,1.40
2016,03,18,02,26,1.40
2016,03,18,02,27,1.40
2016,03,18,02,28,1.40
2016,03,18,02,29,1.40
2016,03,18,02,30,1.40
2016,03,18,02,31,1.40
2016,03,18,02,32,1.40
2016,03,18,02,33,1.40
2016,03,18,02,34,1.40
2016,03,18,02,35,1.40
2016,03,18,02,36,1.40
2016,03,18,02,37,1.40
2016,03,18,02,38,1.40
2016,03,18,02,39,1.40
2016,03,18,02,40,1.40
2016,03,18,02,41,1.40
2016,03,18,02,42,1.30
2016,03,18,02,43,1.30
2016,03,18,02,44,1.30
2016,03,18,02,45,1.30
2016,03,18,02,46,1.30
2016,03,18,02,47,1.30
2016,03,18,02,48,1.30
2016,03,18,02,49,1.30
2016,03,18,02,50,1.30
2016,03,18,02,51,1.30
2016,03,18,02,52,1.30
2016,03,18,02,53,1.30
2016,03,18,02,54,1.30
2016,03,18,02,55,1.30
2016,03,18,02,56,1.30
2016,03,18,02,57,1.30
2016,03,18,02,58,1.30
2016,03,18,02,59,1.30
2016,03,18,03,00,1.30
2016,03,18,03,01,1.30
2016,03,18,03,02,1.30
2016,03,18,03,03,1.30
2016,03,18,03,04,1.30
2016,03,18,03,05,1.20
2016,03,18,03,06,1.20
2016,03,18,03,07,1.20
2016,03,18,03,08,1.20
2016,03,18,03,09,1.20
2016,03,18,03,10,1.20
2016,03,18,03,11,1.20
2016,03,18,03,12,1.20
2016,03,18,03,13,1.20
2016,03,18,03,14,1.20
2016,03,18,03,15,1.20
2016,03,18,03,16,1.20
2016,03,18,03,17,1.20
2016,03,18,03,18,1.20
2016,03,18,03,19,1.20
2016,03,18,03,20,1.30
2016,03,18,03,21,1.30
2016,03,18,03,22,1.30
2016,03,18,03,23,1.30
2016,03,18,03,24,1.20
2016,03,18,03,25,1.20
2016,03,18,03,26,1.20
2016,03,18,03,27,1.20
2016,03,18,03,28,1.20
2016,03,18,03,29,1.10
2016,03,18,03,30,1.10
2016,03,18,03,31,1.10
2016,03,18,03,32,1.10
2016,03,18,03,33,1.10
2016,03,18,03,34,1.10
2016,03,18,03,35,1.10
2016,03,18,03,36,1.10
2016,03,18,03,37,1.10
2016,03,18,03,38,1.10
2016,03,18,03,39,1.00
2016,03,18,03,40,1.00
2016,03,18,03,41,1.00
2016,03,18,03,42,1.00
2016,03,18,03,43,1.00
2016,03,18,03,44,1.00
2016,03,18,03,45,1.10
2016,03,18,03,46,1.10
2016,03,18,03,47,1.10
2016,03,18,03,48,1.10
2016,03,18,03,49,1.10
2016,03,18,03,50,1.10
2016,03,18,03,51,1.00
2016,03,18,03,52,1.00
2016,03,18,03,53,1.00
2016,03,18,03,54,1.00
2016,03,18,03,55,1.00
2016,03,18,03,56,1.00
2016,03,18,03,57,1.00
2016,03,18,03,58,1.00
2016,03,18,03,59,1.00
2016,03,18,04,00,1.00
2016,03,18,04,01,1.00
2016,03,18,04,02,1.00
2016,03,18,04,03,1.00
2016,03,18,04,04,1.00
2016,03,18,04,05,1.00
2016,03,18,04,06,1.00
2016,03,18,04,07,1.00
2016,03,18,04,08,1.00
2016,03,18,04,09,1.00
2016,03,18,04,10,1.00
2016,03,18,04,11,1.00
2016,03,18,04,12,1.00
2016,03,18,04,13,1.00
2016,03,18,04,14,1.00
2016,03,18,04,15,0.90
2016,03,18,04,16,0.90
2016,03,18,04,17,0.90
2016,03,18,04,18,0.90
2016,03,18,04,19,0.90
2016,03,18,04,20,0.90
2016,03,18,04,21,0.90
2016,03,18,04,22,0.90
2016,03,18,04,23,0.90
2016,03,18,04,24,0.90
2016,03,18,04,25,0.90
2016,03,18,04,26,0.90
2016,03,18,04,27,0.90
2016,03,18,04,28,0.90
2016,03,18,04,29,0.90
2016,03,18,04,30,0.90
2016,03,18,04,31,0.90
2016,03,18,04,32,0.90
2016,03,18,04,33,0.90
2016,03,18,04,34,0.90
2016,03,18,04,35,0.90
2016,03,18,04,36,0.90
2016,03,18,04,37,0.90
2016,03,18,04,38,0.90
2016,03,18,04,39,0.90
2016,03,18,04,40,0.90
2016,03,18,04,41,0.90
2016,03,18,04,42,0.90
2016,03,18,04,43,0.90
2016,03,18,04,44,0.90
2016,03,18,04,45,0.90
2016,03,18,04,46,1.00
2016,03,18,04,47,1.00
2016,03,18,04,48,1.00
2016,03,18,04,49,1.00
2016,03,18,04,50,1.00
2016,03,18,04,51,1.00
2016,03,18,04,52,1.00
2016,03,18,04,53,1.00
2016,03,18,04,54,1.00
2016,03,18,04,55,1.00
2016,03,18,04,56,1.00
2016,03,18,04,57,1.00
2016,03,18,04,58,1.00
2016,03,18,04,59,1.00
2016,03,18,05,00,1.00
2016,03,18,05,01,1.00
2016,03,18,05,02,1.00
2016,03,18,05,03,0.90
2016,03,18,05,04,0.90
2016,03,18,05,05,0.90
2016,03,18,05,06,0.90
2016,03,18,05,07,0.90
2016,03,18,05,08,0.90
2016,03,18,05,09,0.90
2016,03,18,05,10,0.90
2016,03,18,05,11,0.90
2016,03,18,05,12,0.90
2016,03,18,05,13,1.00
2016,03,18,05,14,1.00
2016,03,18,05,15,1.00
2016,03,18,05,16,1.00
2016,03,18,05,17,0.90
2016,03,18,05,18,0.90
2016,03,18,05,19,0.90
2016,03,18,05,20,0.90
2016,03,18,05,21,0.80
2016,03,18,05,22,0.80
2016,03,18,05,23,0.80
2016,03,18,05,24,0.80
2016,03,18,05,25,0.80
2016,03,18,05,26,0.70
2016,03,18,05,27,0.70
2016,03,18,05,28,0.70
2016,03,18,05,29,0.70
2016,03,18,05,30,0.70
2016,03,18,05,31,0.70
2016,03,18,05,32,0.70
2016,03,18,05,33,0.70
2016,03,18,05,34,0.70
2016,03,18,05,35,0.70
2016,03,18,05,36,0.70
2016,03,18,05,37,0.70
2016,03,18,05,38,0.70
2016,03,18,05,39,0.70
2016,03,18,05,40,0.70
2016,03,18,05,41,0.60
2016,03,18,05,42,0.70
2016,03,18,05,43,0.60
2016,03,18,05,44,0.60
2016,03,18,05,45,0.60
2016,03,18,05,46,0.60
2016,03,18,05,47,0.60
2016,03,18,05,48,0.60
2016,03,18,05,49,0.50
2016,03,18,05,50,0.50
2016,03,18,05,51,0.50
2016,03,18,05,52,0.50
2016,03,18,05,53,0.50
2016,03,18,05,54,0.50
2016,03,18,05,55,0.60
2016,03,18,05,56,0.60
2016,03,18,05,57,0.60
2016,03,18,05,58,0.60
2016,03,18,05,59,0.60
2016,03,18,06,00,0.60
2016,03,18,06,01,0.60
2016,03,18,06,02,0.60
2016,03,18,06,03,0.60
2016,03,18,06,04,0.50
2016,03,18,06,05,0.50
2016,03,18,06,06,0.60
2016,03,18,06,07,0.60
2016,03,18,06,08,0.60
2016,03,18,06,09,0.60
2016,03,18,06,10,0.60
2016,03,18,06,11,0.60
2016,03,18,06,12,0.60
2016,03,18,06,13,0.60
2016,03,18,06,14,0.60
2016,03,18,06,15,0.60
2016,03,18,06,16,0.60
2016,03,18,06,17,0.60
2016,03,18,06,18,0.50
2016,03,18,06,19,0.50
2016,03,18,06,20,0.50
2016,03,18,06,21,0.50
2016,03,18,06,22,0.50
2016,03,18,06,23,0.50
2016,03,18,06,24,0.50
2016,03,18,06,25,0.40
2016,03,18,06,26,0.40
2016,03,18,06,27,0.40
2016,03,18,06,28,0.40
2016,03,18,06,29,0.40
2016,03,18,06,30,0.40
2016,03,18,06,31,0.50
2016,03,18,06,32,0.50
2016,03,18,06,33,0.50
2016,03,18,06,34,0.50
2016,03,18,06,35,0.50
2016,03,18,06,36,0.50
2016,03,18,06,37,0.60
2016,03,18,06,38,0.60
2016,03,18,06,39,0.60
2016,03,18,06,40,0.60
2016,03,18,06,41,0.60
2016,03,18,06,42,0.60
2016,03,18,06,43,0.60
2016,03,18,06,44,0.60
2016,03,18,06,45,0.50
2016,03,18,06,46,0.50
2016,03,18,06,47,0.50
2016,03,18,06,48,0.50
2016,03,18,06,49,0.50
2016,03,18,06,50,0.50
2016,03,18,06,51,0.50
2016,03,18,06,52,0.50
2016,03,18,06,53,0.40
2016,03,18,06,54,0.40
2016,03,18,06,55,0.40
2016,03,18,06,56,0.40
2016,03,18,06,57,0.40
2016,03,18,06,58,0.40
2016,03,18,06,59,0.40
2016,03,18,07,00,0.40
2016,03,18,07,01,0.40
2016,03,18,07,02,0.30
2016,03,18,07,03,0.30
2016,03,18,07,04,0.30
2016,03,18,07,05,0.30
2016,03,18,07,06,0.30
2016,03,18,07,07,0.30
2016,03,18,07,08,0.30
2016,03,18,07,09,0.30
2016,03,18,07,10,0.40
2016,03,18,07,11,0.40
2016,03,18,07,12,0.40
2016,03,18,07,13,0.40
2016,03,18,07,14,0.50
2016,03,18,07,15,0.50
2016,03,18,07,16,0.50
2016,03,18,07,17,0.50
2016,03,18,07,18,0.60
2016,03,18,07,19,0.60
2016,03,18,07,20,0.60
2016,03,18,07,21,0.50
2016,03,18,07,22,0.50
2016,03,18,07,23,0.50
2016,03,18,07,24,0.50
2016,03,18,07,25,0.50
2016,03,18,07,26,0.50
2016,03,18,07,27,0.50
2016,03,18,07,28,0.50
2016,03,18,07,29,0.50
2016,03,18,07,30,0.50
2016,03,18,07,31,0.50
2016,03,18,07,32,0.50
2016,03,18,07,33,0.50
2016,03,18,07,34,0.50
2016,03,18,07,35,0.40
2016,03,18,07,36,0.40
2016,03,18,07,37,0.40
2016,03,18,07,38,0.40
2016,03,18,07,39,0.40
2016,03,18,07,40,0.40
2016,03,18,07,41,0.50
2016,03,18,07,42,0.50
2016,03,18,07,43,0.50
2016,03,18,07,44,0.50
2016,03,18,07,45,0.50
2016,03,18,07,46,0.50
2016,03,18,07,47,0.50
2016,03,18,07,48,0.50
2016,03,18,07,49,0.50
2016,03,18,07,50,0.50
2016,03,18,07,51,0.50
2016,03,18,07,52,0.50
2016,03,18,07,53,0.60
2016,03,18,07,54,0.60
2016,03,18,07,55,0.60
2016,03,18,07,56,0.70
2016,03,18,07,57,0.70
2016,03,18,07,58,0.80
2016,03,18,07,59,0.80
2016,03,18,08,00,0.80
2016,03,18,08,01,0.90
2016,03,18,08,02,0.90
2016,03,18,08,03,1.00
2016,03,18,08,04,1.00
2016,03,18,08,05,1.10
2016,03,18,08,06,1.10
2016,03,18,08,07,1.10
2016,03,18,08,08,1.20
2016,03,18,08,09,1.20
2016,03,18,08,10,1.20
2016,03,18,08,11,1.20
2016,03,18,08,12,1.20
2016,03,18,08,13,1.20
2016,03,18,08,14,1.30
2016,03,18,08,15,1.30
2016,03,18,08,16,1.30
2016,03,18,08,17,1.30
2016,03,18,08,18,1.40
2016,03,18,08,19,1.40
2016,03,18,08,20,1.40
2016,03,18,08,21,1.50
2016,03,18,08,22,1.50
2016,03,18,08,23,1.50
2016,03,18,08,24,1.60
2016,03,18,08,25,1.60
2016,03,18,08,26,1.60
2016,03,18,08,27,1.60
2016,03,18,08,28,1.70
2016,03,18,08,29,1.70
2016,03,18,08,30,1.70
2016,03,18,08,31,1.70
2016,03,18,08,32,1.80
2016,03,18,08,33,1.80
2016,03,18,08,34,1.80
2016,03,18,08,35,1.90
2016,03,18,08,36,1.90
2016,03,18,08,37,2.00
2016,03,18,08,38,2.00
2016,03,18,08,39,2.10
2016,03,18,08,40,2.20
2016,03,18,08,41,2.20
2016,03,18,08,42,2.20
2016,03,18,08,43,2.20
2016,03,18,08,44,2.30
2016,03,18,08,45,2.30
2016,03,18,08,46,2.30
2016,03,18,08,47,2.40
2016,03,18,08,48,2.40
2016,03,18,08,49,2.50
2016,03,18,08,50,2.50
2016,03,18,08,51,2.60
2016,03,18,08,52,2.60
2016,03,18,08,53,2.70
2016,03,18,08,54,2.70
2016,03,18,08,55,2.70
2016,03,18,08,56,2.80
2016,03,18,08,57,2.80
2016,03,18,08,58,2.80
2016,03,18,08,59,2.90
2016,03,18,09,00,2.90
2016,03,18,09,01,3.00
2016,03,18,09,02,3.00
2016,03,18,09,03,3.10
2016,03,18,09,04,3.10
2016,03,18,09,05,3.20
2016,03,18,09,06,3.30
2016,03,18,09,07,3.30
2016,03,18,09,08,3.40
2016,03,18,09,09,3.60
2016,03,18,09,10,3.70
2016,03,18,09,11,3.80
2016,03,18,09,12,3.90
2016,03,18,09,13,4.00
2016,03,18,09,14,4.10
2016,03,18,09,15,4.30
2016,03,18,09,16,4.40
2016,03,18,09,17,4.50
2016,03,18,09,18,4.50
2016,03,18,09,19,4.70
2016,03,18,09,20,4.70
2016,03,18,09,21,4.80
2016,03,18,09,22,4.90
2016,03,18,09,23,5.00
2016,03,18,09,24,5.00
2016,03,18,09,25,5.10
2016,03,18,09,26,5.10
2016,03,18,09,27,5.10
2016,03,18,09,28,5.20
2016,03,18,09,29,5.20
2016,03,18,09,30,5.20
2016,03,18,09,31,5.30
2016,03,18,09,32,5.40
2016,03,18,09,33,5.50
2016,03,18,09,34,5.50
2016,03,18,09,35,5.60
2016,03,18,09,36,5.80
2016,03,18,09,37,5.90
2016,03,18,09,38,6.00
2016,03,18,09,39,6.10
2016,03,18,09,40,6.20
2016,03,18,09,41,6.30
2016,03,18,09,42,6.40
2016,03,18,09,43,6.50
2016,03,18,09,44,6.60
2016,03,18,09,45,6.60
2016,03,18,09,46,6.70
2016,03,18,09,47,6.80
2016,03,18,09,48,6.80
2016,03,18,09,49,6.90
2016,03,18,09,50,6.90
2016,03,18,09,51,7.00
2016,03,18,09,52,7.00
2016,03,18,09,53,7.10
2016,03,18,09,54,7.10
2016,03,18,09,55,7.20
2016,03,18,09,56,7.20
2016,03,18,09,57,7.20
2016,03,18,09,58,7.30
2016,03,18,09,59,7.30
2016,03,18,10,00,7.30
2016,03,18,10,01,7.40
2016,03,18,10,02,7.40
2016,03,18,10,03,7.40
2016,03,18,10,04,7.50
2016,03,18,10,05,7.50
2016,03,18,10,06,7.50
2016,03,18,10,07,7.60
2016,03,18,10,08,7.60
2016,03,18,10,09,7.60
2016,03,18,10,10,7.60
2016,03,18,10,11,7.70
2016,03,18,10,12,7.70
2016,03,18,10,13,7.70
2016,03,18,10,14,7.70
2016,03,18,10,15,7.80
2016,03,18,10,16,7.80
2016,03,18,10,17,7.80
2016,03,18,10,18,7.80
2016,03,18,10,19,7.80
2016,03,18,10,20,7.90
2016,03,18,10,21,7.90
2016,03,18,10,22,7.90
2016,03,18,10,23,7.90
2016,03,18,10,24,8.00
2016,03,18,10,25,8.00
2016,03,18,10,26,8.10
2016,03,18,10,27,8.10
2016,03,18,10,28,8.20
2016,03,18,10,29,8.20
2016,03,18,10,30,8.30
2016,03,18,10,31,8.30
2016,03,18,10,32,8.40
2016,03,18,10,33,8.40
2016,03,18,10,34,8.50
2016,03,18,10,35,8.60
2016,03,18,10,36,8.60
2016,03,18,10,37,8.70
2016,03,18,10,38,8.70
2016,03,18,10,39,8.70
2016,03,18,10,40,8.70
2016,03,18,10,41,8.80
2016,03,18,10,42,8.80
2016,03,18,10,43,8.90
2016,03,18,10,44,8.90
2016,03,18,10,45,9.00
2016,03,18,10,46,9.00
2016,03,18,10,47,9.10
2016,03,18,10,48,9.20
2016,03,18,10,49,9.30
2016,03,18,10,50,9.30
2016,03,18,10,51,9.30
2016,03,18,10,52,9.30
2016,03,18,10,53,9.30
2016,03,18,10,54,9.30
2016,03,18,10,55,9.30
2016,03,18,10,56,9.30
2016,03,18,10,57,9.30
2016,03,18,10,58,9.40
2016,03,18,10,59,9.40
2016,03,18,11,00,9.50
2016,03,18,11,01,9.50
2016,03,18,11,02,9.60
2016,03,18,11,03,9.70
2016,03,18,11,04,9.70
2016,03,18,11,05,9.80
2016,03,18,11,06,9.80
2016,03,18,11,07,9.90
2016,03,18,11,08,9.90
2016,03,18,11,09,10.00
2016,03,18,11,10,10.00
2016,03,18,11,11,10.00
2016,03,18,11,12,10.00
2016,03,18,11,13,10.00
2016,03,18,11,14,10.00
2016,03,18,11,15,10.00
2016,03,18,11,16,10.10
2016,03,18,11,17,10.10
2016,03,18,11,18,10.10
2016,03,18,11,19,10.20
2016,03,18,11,20,10.30
2016,03,18,11,21,10.30
2016,03,18,11,22,10.30
2016,03,18,11,23,10.30
2016,03,18,11,24,10.40
2016,03,18,11,25,10.40
2016,03,18,11,26,10.50
2016,03,18,11,27,10.50
2016,03,18,11,28,10.60
2016,03,18,11,29,10.70
2016,03,18,11,30,10.70
2016,03,18,11,31,10.80
2016,03,18,11,32,10.80
2016,03,18,11,33,10.80
2016,03,18,11,34,10.80
2016,03,18,11,35,10.70
2016,03,18,11,36,10.70
2016,03,18,11,37,10.70
2016,03,18,11,38,10.70
2016,03,18,11,39,10.70
2016,03,18,11,40,10.70
2016,03,18,11,41,10.70
2016,03,18,11,42,10.70
2016,03,18,11,43,10.60
2016,03,18,11,44,10.60
2016,03,18,11,45,10.50
2016,03,18,11,46,10.40
2016,03,18,11,47,10.40
2016,03,18,11,48,10.40
2016,03,18,11,49,10.40
2016,03,18,11,50,10.40
2016,03,18,11,51,10.50
2016,03,18,11,52,10.50
2016,03,18,11,53,10.60
2016,03,18,11,54,10.70
2016,03,18,11,55,10.70
2016,03,18,11,56,10.70
2016,03,18,11,57,10.70
2016,03,18,11,58,10.70
2016,03,18,11,59,10.70
2016,03,18,12,00,10.70
2016,03,18,12,01,10.80
2016,03,18,12,02,10.80
2016,03,18,12,03,10.80
2016,03,18,12,04,10.80
2016,03,18,12,05,10.80
2016,03,18,12,06,10.90
2016,03,18,12,07,10.90
2016,03,18,12,08,10.90
2016,03,18,12,09,10.90
2016,03,18,12,10,10.90
2016,03,18,12,11,11.00
2016,03,18,12,12,11.10
2016,03,18,12,13,11.00
2016,03,18,12,14,11.00
2016,03,18,12,15,11.00
2016,03,18,12,16,11.00
2016,03,18,12,17,11.10
2016,03,18,12,18,11.10
2016,03,18,12,19,11.10
2016,03,18,12,20,11.10
2016,03,18,12,21,11.10
2016,03,18,12,22,11.10
2016,03,18,12,23,11.20
2016,03,18,12,24,11.20
2016,03,18,12,25,11.30
2016,03,18,12,26,11.30
2016,03,18,12,27,11.30
2016,03,18,12,28,11.30
2016,03,18,12,29,11.30
2016,03,18,12,30,11.30
2016,03,18,12,31,11.30
2016,03,18,12,32,11.30
2016,03,18,12,33,11.30
2016,03,18,12,34,11.30
2016,03,18,12,35,11.30
2016,03,18,12,36,11.30
2016,03,18,12,37,11.30
2016,03,18,12,38,11.30
2016,03,18,12,39,11.30
2016,03,18,12,40,11.30
2016,03,18,12,41,11.30
2016,03,18,12,42,11.30
2016,03,18,12,43,11.40
2016,03,18,12,44,11.40
2016,03,18,12,45,11.40
2016,03,18,12,46,11.40
2016,03,18,12,47,11.40
2016,03,18,12,48,11.50
2016,03,18,12,49,11.50
2016,03,18,12,50,11.50
2016,03,18,12,51,11.50
2016,03,18,12,52,11.50
2016,03,18,12,53,11.50
2016,03,18,12,54,11.50
2016,03,18,12,55,11.50
2016,03,18,12,56,11.60
2016,03,18,12,57,11.60
2016,03,18,12,58,11.60
2016,03,18,12,59,11.60
2016,03,18,13,00,11.70
2016,03,18,13,01,11.70
2016,03,18,13,02,11.70
2016,03,18,13,03,11.80
2016,03,18,13,04,11.90
2016,03,18,13,05,12.00
2016,03,18,13,06,12.00
2016,03,18,13,07,12.00
2016,03,18,13,08,12.10
2016,03,18,13,09,12.10
2016,03,18,13,10,12.10
2016,03,18,13,11,12.10
2016,03,18,13,12,12.10
2016,03,18,13,13,12.10
2016,03,18,13,14,12.10
2016,03,18,13,15,12.10
2016,03,18,13,16,12.10
2016,03,18,13,17,12.10
2016,03,18,13,18,12.10
2016,03,18,13,19,12.20
2016,03,18,13,20,12.20
2016,03,18,13,21,12.20
2016,03,18,13,22,12.20
2016,03,18,13,23,12.20
2016,03,18,13,24,12.20
2016,03,18,13,25,12.30
2016,03,18,13,26,12.40
2016,03,18,13,27,12.50
2016,03,18,13,28,12.60
2016,03,18,13,29,12.50
2016,03,18,13,30,12.40
2016,03,18,13,31,12.40
2016,03,18,13,32,12.50
2016,03,18,13,33,12.50
2016,03,18,13,34,12.50
2016,03,18,13,35,12.40
2016,03,18,13,36,12.40
2016,03,18,13,37,12.50
2016,03,18,13,38,12.50
2016,03,18,13,39,12.50
2016,03,18,13,40,12.40
2016,03,18,13,41,12.40
2016,03,18,13,42,12.30
2016,03,18,13,43,12.30
2016,03,18,13,44,12.30
2016,03,18,13,45,12.30
2016,03,18,13,46,12.30
2016,03,18,13,47,12.30
2016,03,18,13,48,12.40
2016,03,18,13,49,12.40
2016,03,18,13,50,12.40
2016,03,18,13,51,12.40
2016,03,18,13,52,12.50
2016,03,18,13,53,12.50
2016,03,18,13,54,12.60
2016,03,18,13,55,12.60
2016,03,18,13,56,12.60
2016,03,18,13,57,12.50
2016,03,18,13,58,12.50
2016,03,18,13,59,12.60
2016,03,18,14,00,12.60
2016,03,18,14,01,12.70
2016,03,18,14,02,12.70
2016,03,18,14,03,12.70
2016,03,18,14,04,12.60
2016,03,18,14,05,12.60
2016,03,18,14,06,12.60
2016,03,18,14,07,12.60
2016,03,18,14,08,12.60
2016,03,18,14,09,12.60
2016,03,18,14,10,12.60
2016,03,18,14,11,12.70
2016,03,18,14,12,12.80
2016,03,18,14,13,12.70
2016,03,18,14,14,12.70
2016,03,18,14,15,12.70
2016,03,18,14,16,12.70
2016,03,18,14,17,12.70
2016,03,18,14,18,12.70
2016,03,18,14,19,12.70
2016,03,18,14,20,12.70
2016,03,18,14,21,12.70
2016,03,18,14,22,12.70
2016,03,18,14,23,12.70
2016,03,18,14,24,12.70
2016,03,18,14,25,12.70
2016,03,18,14,26,12.70
2016,03,18,14,27,12.70
2016,03,18,14,28,12.80
2016,03,18,14,29,12.90
2016,03,18,14,30,12.90
2016,03,18,14,31,13.00
2016,03,18,14,32,13.00
2016,03,18,14,33,13.10
2016,03,18,14,34,13.10
2016,03,18,14,35,13.20
2016,03,18,14,36,13.20
2016,03,18,14,37,13.30
2016,03,18,14,38,13.30
2016,03,18,14,39,13.30
2016,03,18,14,40,13.30
2016,03,18,14,41,13.40
2016,03,18,14,42,13.30
2016,03,18,14,43,13.20
2016,03,18,14,44,13.20
2016,03,18,14,45,13.10
2016,03,18,14,46,13.20
2016,03,18,14,47,13.20
2016,03,18,14,48,13.20
2016,03,18,14,49,13.10
2016,03,18,14,50,13.00
2016,03,18,14,51,12.90
2016,03,18,14,52,12.90
2016,03,18,14,53,13.00
2016,03,18,14,54,13.00
2016,03,18,14,55,13.10
2016,03,18,14,56,13.10
2016,03,18,14,57,13.10
2016,03,18,14,58,13.20
2016,03,18,14,59,13.20
2016,03,18,15,00,13.20
2016,03,18,15,01,13.20
2016,03,18,15,02,13.20
2016,03,18,15,03,13.20
2016,03,18,15,04,13.20
2016,03,18,15,05,13.30
2016,03,18,15,06,13.20
2016,03,18,15,07,13.20
2016,03,18,15,08,13.20
2016,03,18,15,09,13.20
2016,03,18,15,10,13.20
2016,03,18,15,11,13.30
2016,03,18,15,12,13.40
2016,03,18,15,13,13.50
2016,03,18,15,14,13.60
2016,03,18,15,15,13.60
2016,03,18,15,16,13.70
2016,03,18,15,17,13.80
2016,03,18,15,18,13.80
2016,03,18,15,19,13.80
2016,03,18,15,20,13.70
2016,03,18,15,21,13.70
2016,03,18,15,22,13.80
2016,03,18,15,23,13.80
2016,03,18,15,24,13.80
2016,03,18,15,25,13.70
2016,03,18,15,26,13.70
2016,03,18,15,27,13.60
2016,03,18,15,28,13.60
2016,03,18,15,29,13.50
2016,03,18,15,30,13.50
2016,03,18,15,31,13.40
2016,03,18,15,32,13.40
2016,03,18,15,33,13.40
2016,03,18,15,34,13.40
2016,03,18,15,35,13.40
2016,03,18,15,36,13.40
2016,03,18,15,37,13.40
2016,03,18,15,38,13.40
2016,03,18,15,39,13.40
2016,03,18,15,40,13.40
2016,03,18,15,41,13.50
2016,03,18,15,42,13.50
2016,03,18,15,43,13.50
2016,03,18,15,44,13.60
2016,03,18,15,45,13.60
2016,03,18,15,46,13.70
2016,03,18,15,47,13.70
2016,03,18,15,48,13.70
2016,03,18,15,49,13.70
2016,03,18,15,50,13.60
2016,03,18,15,51,13.60
2016,03,18,15,52,13.60
2016,03,18,15,53,13.60
2016,03,18,15,54,13.70
2016,03,18,15,55,13.70
2016,03,18,15,56,13.80
2016,03,18,15,57,13.80
2016,03,18,15,58,13.80
2016,03,18,15,59,13.80
2016,03,18,16,00,13.70
2016,03,18,16,01,13.70
2016,03,18,16,02,13.80
2016,03,18,16,03,13.80
2016,03,18,16,04,13.80
2016,03,18,16,05,13.80
2016,03,18,16,06,13.80
2016,03,18,16,07,13.80
2016,03,18,16,08,13.80
2016,03,18,16,09,13.80
2016,03,18,16,10,13.80
2016,03,18,16,11,13.80
2016,03,18,16,12,13.80
2016,03,18,16,13,13.80
2016,03,18,16,14,13.80
2016,03,18,16,15,13.80
2016,03,18,16,16,13.80
2016,03,18,16,17,13.80
2016,03,18,16,18,13.80
2016,03,18,16,19,13.80
2016,03,18,16,20,13.80
2016,03,18,16,21,13.80
2016,03,18,16,22,13.80
2016,03,18,16,23,13.80
2016,03,18,16,24,13.80
2016,03,18,16,25,13.70
2016,03,18,16,26,13.70
2016,03,18,16,27,13.70
2016,03,18,16,28,13.70
2016,03,18,16,29,13.70
2016,03,18,16,30,13.70
2016,03,18,16,31,13.70
2016,03,18,16,32,13.70
2016,03,18,16,33,13.80
2016,03,18,16,34,13.80
2016,03,18,16,35,13.80
2016,03,18,16,36,13.70
2016,03,18,16,37,13.70
2016,03,18,16,38,13.70
2016,03,18,16,39,13.70
2016,03,18,16,40,13.60
2016,03,18,16,41,13.60
2016,03,18,16,42,13.60
2016,03,18,16,43,13.50
2016,03,18,16,44,13.50
2016,03,18,16,45,13.50
2016,03,18,16,46,13.50
2016,03,18,16,47,13.50
2016,03,18,16,48,13.50
2016,03,18,16,49,13.60
2016,03,18,16,50,13.60
2016,03,18,16,51,13.60
2016,03,18,16,52,13.70
2016,03,18,16,53,13.70
2016,03,18,16,54,13.70
2016,03,18,16,55,13.80
2016,03,18,16,56,13.80
2016,03,18,16,57,13.80
2016,03,18,16,58,13.90
2016,03,18,16,59,13.90
2016,03,18,17,00,14.00
2016,03,18,17,01,14.00
2016,03,18,17,02,14.00
2016,03,18,17,03,14.00
2016,03,18,17,04,14.00
2016,03,18,17,05,14.10
2016,03,18,17,06,14.10
2016,03,18,17,07,14.20
2016,03,18,17,08,14.20
2016,03,18,17,09,14.20
2016,03,18,17,10,14.20
2016,03,18,17,11,14.20
2016,03,18,17,12,14.20
2016,03,18,17,13,14.10
2016,03,18,17,14,14.10
2016,03,18,17,15,14.10
2016,03,18,17,16,14.10
2016,03,18,17,17,14.10
2016,03,18,17,18,14.10
2016,03,18,17,19,14.10
2016,03,18,17,20,14.10
2016,03,18,17,21,14.10
2016,03,18,17,22,14.10
2016,03,18,17,23,14.10
2016,03,18,17,24,14.10
2016,03,18,17,25,14.00
2016,03,18,17,26,14.00
2016,03,18,17,27,13.90
2016,03,18,17,28,13.90
2016,03,18,17,29,13.80
2016,03,18,17,30,13.80
2016,03,18,17,31,13.80
2016,03,18,17,32,13.80
2016,03,18,17,33,13.90
2016,03,18,17,34,13.90
2016,03,18,17,35,13.80
2016,03,18,17,36,13.80
2016,03,18,17,37,13.80
2016,03,18,17,38,13.80
2016,03,18,17,39,13.80
2016,03,18,17,40,13.80
2016,03,18,17,41,13.80
2016,03,18,17,42,13.80
2016,03,18,17,43,13.70
2016,03,18,17,44,13.70
2016,03,18,17,45,13.70
2016,03,18,17,46,13.70
2016,03,18,17,47,13.70
2016,03,18,17,48,13.70